Location: Albany
(35.0000°S, 118.0000°E)
Time: 07:24:42
(UTC-04:00)

Tiangong - Pass Details

Date: 02 October 2021
Orbit: 382 x 385 km, 41.5° (Epoch: 16 October)

Event Time Altitude Azimuth Distance (km) Brightness Sun altitude
Rises 07:24:25 0° 247° (WSW) 2,287 6.8 -15.4°
Reaches altitude 10° 07:26:31 10° 251° (WSW) 1,428 5.3 -15.8°
Maximum altitude 07:29:42 61° 331° (NNW) 448 1.4 -16.4°
Enters shadow 07:30:35 40° 32° (NNE) 585 1.6 -16.6°
